Weather Roundup
Issued by NWS

Home | Current Version | Previous Version | Text Only | Print | Product List | Glossary On
Versions: 1 2 3 4 5 6 7 8 9 10 11 12 13 14 15 16 17 18 19 20 21 22 23 24 25 26 27 28 29 30 31 32 33 34 35 36 37 38 39 40 41 42 43 44 45 46 47 48 49 50
000
NZUS93 KARX 241910
HRRWXR

CURRENT HOURLY OBSERVATIONS ACROSS
MUCH OF THE UPPER MISSISSIPPI VALLEY
NATIONAL WEATHER SERVICE LA CROSSE WI
200 PM CDT FRI APR 24 2015


...SOUTHEAST MINNESOTA...


CITY           SKY/WX    TMP DP  RH WIND       PRES   REMARKS
ROCHESTER      RAIN      44  37  76 SE22      29.84F
ROCHESTER/MAYO CLOUDY    45  36  71 SE18G31   29.84F
WINONA         CLOUDY    54  28  37 SE13      29.90F
AUSTIN         RAIN      43  39  87 SE14G28   29.83S
ALBERT LEA     CLOUDY    45  45 100 SE12G22   29.81F
DODGE CENTER   LGT RAIN  45  39  81 SE25G35   29.81F
PRESTON        CLOUDY    44  34  66 SE16G25   29.87F
OWATONNA       CLOUDY    46  41  81 SE13G20   29.81S
FARIBAULT      CLOUDY    45  39  81 E9        29.84S
$$

...ELSEWHERE IN MINNESOTA...


CITY           SKY/WX    TMP DP  RH WIND       PRES   REMARKS
MINNEAPOLIS    CLOUDY    48  43  82 SE16      29.85F
INTNL FALLS    CLOUDY    40  21  46 E9        29.92F WCI  34
DULUTH         CLOUDY    38  29  70 E13       29.95F WCI  30
RED WING       CLOUDY    50  34  53 SE13G22   29.87F
REDWOOD FALLS  CLOUDY    49  40  71 SE22G30   29.73S
MANKATO        CLOUDY    46  37  71 SE15      29.80S
WORTHINGTON    CLOUDY    48  43  81 SE14G24   29.68F
FAIRMONT       CLOUDY    45  10  24 SE25      29.73F
$$

...SOUTHWEST WISCONSIN...


CITY           SKY/WX    TMP DP  RH WIND       PRES   REMARKS
LA CROSSE      LGT RAIN  53  27  36 S14G28    29.92F
PRAIRIE DU CHI LGT RAIN  43  36  75 E13       29.93F
BOSCOBEL       LGT RAIN  47  35  63 VRB5      29.98S
LONE ROCK      LGT RAIN  51  30  44 S14       29.97F
PLATTEVILLE    CLOUDY    46  37  69 E10       29.95F
FORT MC COY    CLOUDY    56  19  23 S12       29.94S
CAMP DOUGLAS   CLOUDY    55  18  22 S9        29.94F
VIROQUA        CLOUDY    47  30  50 SE9       29.94F
WIS DELLS      CLOUDY    54  14  20 SE14      29.96F
$$

...ELSEWHERE IN WISCONSIN...


CITY           SKY/WX    TMP DP  RH WIND       PRES   REMARKS
MILWAUKEE      PTSUNNY   46  28  49 E10       30.03F
MADISON        CLOUDY    53  18  25 S12       29.97F
GREEN BAY      MOSUNNY   53  23  31 SE9G16    30.02F
EAU CLAIRE     CLOUDY    56  19  23 S12       29.90F
BLACK RVR FLS  CLOUDY    57  13  18 SE6       29.92F
MEDFORD        CLOUDY    51  21  30 SE9       29.95F
WAUSAU         CLOUDY    53  15  22 SE6       29.95F
WIS RAPIDS     PTSUNNY   58  15  18 S8        29.96F
MARSHFIELD     CLOUDY    57  18  21 S15       29.94F
RICE LAKE      CLOUDY    51  20  29 E9        29.92F
$$

...NORTHEAST IOWA...


CITY           SKY/WX    TMP DP  RH WIND       PRES   REMARKS
DECORAH        LGT RAIN  43  37  81 SE16G22   29.89F
MASON CITY     RAIN      42  39  89 SE24G30   29.81F FOG
CHARLES CITY   MIX PCPN  43  41  93 SE16G24   29.85F
OELWEIN        MIX PCPN  43  39  87 E18       29.88F
$$

...ELSEWHERE IN IOWA...


CITY           SKY/WX    TMP DP  RH WIND       PRES   REMARKS
DES MOINES     CLOUDY    56  49  77 E7        29.76F
IOWA CITY      LGT RAIN  52  42  69 E9        29.83F
FORT DODGE     CLOUDY    48  43  81 E15       29.76F
$$

...NORTHERN ILLINOIS...


CITY           SKY/WX    TMP DP  RH WIND       PRES   REMARKS
CHICAGO-OHARE  CLOUDY    56  15  20 CALM      30.00S
CHICAGO-MIDWAY CLOUDY    57  20  23 NE9       30.01S
MOLINE         NOT AVBL
ROCKFORD       LGT RAIN  54  27  35 E10       30.00F
PEORIA         CLOUDY    65  29  25 S16G23    29.92F
$$

NOTE: "FAIR" INDICATES FEW OR NO CLOUDS BELOW 12,000 FEET WITH NO
SIGNIFICANT WEATHER AND/OR OBSTRUCTIONS TO VISIBILITY. WIND
SPEEDS ARE IN MILES-PER-HOUR.



USA.gov is the U.S. government's official web portal to all federal, state and local government web resources and services.